Litchfield, IL

3:08 PM CDT on March 30, 2017 (GMT -0500)
Litchfield

Weather History for K3LF - October, 2012

Change the Weather History Date:

Tuesday, October 16, 2012

  Actual Average (KALN) Record (KALN)
Temperature  
Mean Temperature 63 °F -  
Max Temperature 78 °F 66 °F 85 °F (2016)
Min Temperature 48 °F 44 °F 35 °F (2002)
Degree Days  
Heating Degree Days 2    
Growing Degree Days 13 (Base 50)    
Moisture  
Dew Point 50 °F    
Average Humidity 64    
Maximum Humidity 86    
Minimum Humidity 40    
Precipitation  
Precipitation 0.00 in - - ()
Sea Level Pressure  
Sea Level Pressure 29.77 in    
Wind  
Wind Speed 10 mph (SSE)    
Max Wind Speed 23 mph    
Max Gust Speed 29 mph    
Visibility 10 miles    
Events      
Averages and records for this station are not official NWS values.
T = Trace of Precipitation, MM = Missing Value Source: NWS Daily Summary

Daily Weather History Graph

Daily Weather History Graph

Search for Another Location

Airport or City:

Trip Planner

Search our weather history database for the weather conditions in past years. The results will help you decide how hot, cold, wet, or windy it might be!

Date:

Astronomy

Oct. 16, 2012 Rise Set
Actual Time 7:09 AM CDT 6:17 PM CDT
Civil Twilight 6:42 AM CDT 6:44 PM CDT
Nautical Twilight 6:11 AM CDT 7:15 PM CDT
Astronomical Twilight 5:40 AM CDT 7:46 PM CDT
Moon 8:31 AM CDT (10/16) 7:03 PM CDT (10/16)
Length of Visible Light 12h 01m
Length of Day
11h 07m
New Moon, 2% of the Moon is Illuminated
Oct 16
New Moon
Oct 21
First Quarter
Oct 29
Full
Nov 6
Last Quarter
Nov 13
New

Hourly Weather History & Observations

Time (CDT) Temp. Dew Point Humidity Pressure Visibility Wind Dir Wind Speed Gust Speed Precip Events Conditions
12:15 AM 48.4 °F 43.7 °F 84% 29.96 in 10.0 mi Calm Calm - N/A   Clear
12:35 AM 48.4 °F 43.7 °F 84% 29.95 in 10.0 mi ESE 4.6 mph - N/A   Clear
12:55 AM 49.8 °F 44.1 °F 81% 29.95 in 10.0 mi ESE 5.8 mph - N/A   Clear
1:35 AM 50.0 °F 44.6 °F 82% 29.95 in 10.0 mi SE 8.1 mph - N/A   Clear
1:55 AM 49.5 °F 44.2 °F 82% 29.96 in 10.0 mi SE 5.8 mph - N/A   Clear
2:15 AM 49.1 °F 44.4 °F 84% 29.95 in 10.0 mi SE 5.8 mph - N/A   Clear
2:35 AM 48.7 °F 44.6 °F 86% 29.95 in 10.0 mi SE 5.8 mph - N/A   Clear
2:55 AM 49.1 °F 44.8 °F 85% 29.93 in 10.0 mi SE 6.9 mph - N/A   Clear
3:15 AM 49.3 °F 45.0 °F 85% 29.93 in 10.0 mi SE 6.9 mph - N/A   Clear
3:35 AM 49.3 °F 44.8 °F 84% 29.92 in 10.0 mi SE 6.9 mph - N/A   Clear
3:55 AM 49.3 °F 44.8 °F 84% 29.91 in 10.0 mi SE 8.1 mph - N/A   Clear
4:15 AM 49.1 °F 44.8 °F 85% 29.90 in 10.0 mi SE 9.2 mph - N/A   Clear
4:35 AM 49.3 °F 44.8 °F 84% 29.90 in 10.0 mi SE 9.2 mph - N/A   Clear
5:15 AM 49.3 °F 44.6 °F 84% 29.88 in 10.0 mi SE 10.4 mph - N/A   Clear
5:35 AM 49.5 °F 44.6 °F 83% 29.88 in 10.0 mi SE 10.4 mph - N/A   Clear
6:15 AM 49.6 °F 44.6 °F 83% 29.86 in 10.0 mi SE 9.2 mph - N/A   Clear
6:35 AM 49.5 °F 44.4 °F 83% 29.86 in 10.0 mi SE 10.4 mph - N/A   Clear
7:15 AM 49.6 °F 44.6 °F 83% 29.87 in 10.0 mi SE 9.2 mph - N/A   Clear
7:35 AM 50.2 °F 44.8 °F 82% 29.87 in 10.0 mi SE 10.4 mph - N/A   Clear
7:55 AM 51.8 °F 45.1 °F 78% 29.87 in 10.0 mi SE 10.4 mph - N/A   Clear
8:35 AM 54.7 °F 46.4 °F 74% 29.87 in 10.0 mi SSE 13.8 mph - N/A   Clear
8:55 AM 56.1 °F 47.1 °F 72% 29.87 in 10.0 mi SSE 13.8 mph - N/A   Clear
9:15 AM 57.6 °F 48.0 °F 70% 29.86 in 10.0 mi SSE 13.8 mph 17.3 mph N/A   Clear
9:35 AM 59.0 °F 48.6 °F 68% 29.86 in 10.0 mi SSE 16.1 mph 19.6 mph N/A   Clear
9:55 AM 60.3 °F 49.8 °F 68% 29.85 in 10.0 mi SSE 15.0 mph - N/A   Clear
10:15 AM 61.7 °F 50.2 °F 66% 29.85 in 10.0 mi SSE 16.1 mph - N/A   Clear
11:15 AM 65.3 °F 51.8 °F 62% 29.82 in 10.0 mi SE 12.7 mph - N/A   Clear
11:55 AM 68.2 °F 52.7 °F 58% 29.80 in 10.0 mi SSE 15.0 mph - N/A   Clear
12:15 PM 69.8 °F 53.2 °F 56% 29.79 in 10.0 mi SSE 16.1 mph 20.7 mph N/A   Clear
12:35 PM 71.1 °F 53.1 °F 53% 29.77 in 10.0 mi SSE 16.1 mph - N/A   Clear
12:55 PM 72.1 °F 53.4 °F 52% 29.76 in 10.0 mi South 17.3 mph - N/A   Clear
1:15 PM 73.4 °F 53.4 °F 49% 29.75 in 10.0 mi South 16.1 mph - N/A   Clear
1:35 PM 75.4 °F 52.5 °F 45% 29.73 in 10.0 mi South 18.4 mph 23.0 mph N/A   Clear
1:55 PM 74.8 °F 51.8 °F 44% 29.72 in 10.0 mi South 15.0 mph 26.5 mph N/A   Clear
2:15 PM 76.6 °F 51.8 °F 42% 29.71 in 10.0 mi South 19.6 mph 24.2 mph N/A   Scattered Clouds
2:35 PM 77.4 °F 52.2 °F 41% 29.70 in 10.0 mi South 19.6 mph 25.3 mph N/A   Clear
2:55 PM 77.0 °F 52.0 °F 42% 29.69 in 10.0 mi South 20.7 mph - N/A   Clear
3:15 PM 78.3 °F 52.0 °F 40% 29.68 in 10.0 mi South 23.0 mph 28.8 mph N/A   Clear
3:35 PM 78.3 °F 52.9 °F 41% 29.67 in 10.0 mi South 19.6 mph 24.2 mph N/A   Clear
3:55 PM 75.2 °F 53.2 °F 46% 29.66 in 10.0 mi South 16.1 mph 24.2 mph N/A   Clear
4:15 PM 74.7 °F 53.8 °F 48% 29.65 in 10.0 mi South 16.1 mph - N/A   Clear
4:35 PM 74.1 °F 54.7 °F 51% 29.65 in 10.0 mi SSE 12.7 mph - N/A   Clear
4:55 PM 73.9 °F 54.9 °F 51% 29.64 in 10.0 mi SSE 13.8 mph - N/A   Clear
5:15 PM 73.8 °F 54.7 °F 51% 29.63 in 10.0 mi South 13.8 mph - N/A   Clear
5:35 PM 74.7 °F 51.8 °F 45% 29.63 in 10.0 mi South 13.8 mph 20.7 mph N/A   Clear
5:55 PM 73.8 °F 52.0 °F 46% 29.63 in 10.0 mi South 12.7 mph - N/A   Clear
6:15 PM 72.7 °F 51.8 °F 48% 29.63 in 10.0 mi South 12.7 mph - N/A   Clear
6:35 PM 71.8 °F 51.3 °F 48% 29.63 in 10.0 mi South 12.7 mph - N/A   Clear
6:55 PM 70.9 °F 52.9 °F 53% 29.64 in 10.0 mi South 13.8 mph - N/A   Clear
7:15 PM 70.0 °F 53.6 °F 56% 29.64 in 10.0 mi South 13.8 mph - N/A   Clear
7:35 PM 68.4 °F 54.0 °F 60% 29.64 in 10.0 mi South 11.5 mph - N/A   Clear
7:55 PM 68.0 °F 53.6 °F 60% 29.64 in 10.0 mi South 13.8 mph - N/A   Clear
8:15 PM 68.0 °F 52.9 °F 58% 29.64 in 10.0 mi South 17.3 mph - N/A   Clear
8:35 PM 68.2 °F 52.3 °F 57% 29.64 in 10.0 mi South 16.1 mph 24.2 mph N/A   Clear
8:55 PM 67.1 °F 52.2 °F 59% 29.65 in 10.0 mi South 16.1 mph - N/A   Clear
9:15 PM 66.4 °F 51.8 °F 59% 29.65 in 10.0 mi South 16.1 mph - N/A   Clear
9:35 PM 66.2 °F 51.3 °F 59% 29.65 in 10.0 mi South 17.3 mph 23.0 mph N/A   Clear
9:55 PM 65.5 °F 51.3 °F 60% 29.65 in 10.0 mi South 16.1 mph 21.9 mph N/A   Clear
10:15 PM 64.4 °F 51.8 °F 64% 29.66 in 10.0 mi South 15.0 mph - N/A   Clear
10:35 PM 63.7 °F 51.4 °F 64% 29.66 in 10.0 mi South 13.8 mph - N/A   Clear
10:55 PM 63.0 °F 51.4 °F 66% 29.67 in 10.0 mi South 13.8 mph - N/A   Clear
11:15 PM 62.1 °F 51.4 °F 68% 29.67 in 10.0 mi South 13.8 mph - N/A   Clear
11:55 PM 61.2 °F 51.1 °F 69% 29.66 in 10.0 mi South 15.0 mph - N/A   Clear